Regional Weather Roundup
Issued by NWS Upton, NY

Current Version | Previous Version | Text Only | Print | Product List | Glossary On
Versions: 1 2 3 4 5 6 7 8 9 10 11 12 13 14 15 16 17 18 19 20 21 22 23 24 25 26 27
000 ASUS41 KOKX 200005 RWROKX Regional Weather Roundup National Weather Service New York NY 800 PM EDT THU APR 19 2018 Note: "FAIR" indicates few or no clouds below 12,000 feet with no significant weather and/or obstructions to visibility. NYZ071-072-176-178-NJZ106-104-200100- New York City Metro Area CITY SKY/WX TMP DP RH WIND PRES REMARKS Central Park MOCLDY 43 23 45 NW12G29 29.92R Bronx Bot Gard N/A 43 25 49 N13 29.92R Bronx Lehman C N/A 43 27 52 NW12 N/A LaGuardia Arpt MOCLDY 45 25 45 NW23G31 29.90R Queens College N/A 43 25 49 W22G33 N/A Kennedy Intl MOCLDY 44 26 49 NW23G31 29.90R Breezy Point N/A 43 N/A N/A NW17G30 N/A Brooklyn Coll N/A 45 25 45 W22G33 N/A Staten Island N/A 43 27 52 NW15G29 N/A Newark/Liberty FAIR 44 24 45 NW25 29.92R Teterboro FAIR 43 24 47 NW18G29 29.90R $$ NYZ177-179-078>081-200100- Long Island New York CITY SKY/WX TMP DP RH WIND PRES REMARKS Jones Beach N/A 43 N/A N/A NW15G22 N/A Wantagh N/A 43 27 52 NW13G24 N/A Hempstead N/A 43 30 61 NW13 29.92R Matinecock Pt N/A 45 N/A N/A NW28G36 N/A Farmingdale MOCLDY 43 25 49 NW16G28 29.88R MacArthur/ISP MOCLDY 41 35 79 NW7 29.86R Stony Brook N/A 41 36 81 N6 N/A Shirley CLOUDY 40 37 89 NW10 29.87R WCI 33 Mt Sinai Harb N/A N/A N/A N/A NW8 N/A Westhampton LGT RAIN 39 34 82 NW13 29.87R WCI 31 East Hampton CLOUDY 39 34 80 NW8 29.83R WCI 34 Southold N/A 41 36 81 NW9 N/A Montauk N/A 44 39 82 W12G22 29.82R $$ NYZ052-065-067-200100- Hudson Valley CITY SKY/WX TMP DP RH WIND PRES REMARKS White Plains LGT RAIN 41 25 53 NW21G30 29.87R Larchmont Harb N/A 43 N/A N/A W18G24 N/A Croton On Huds N/A 43 N/A N/A W16G23 N/A Somers N/A 39 25 56 NW13 N/A WCI 32 Brewster N/A 37 25 60 NW12 N/A WCI 30 Newburgh PTCLDY 39 25 56 NW17G29 29.91R WCI 30 Montgomery MOCLDY 39 24 55 NW13G22 29.90R WCI 31 Otisville N/A 36 27 69 NW10 N/A WCI 28 Warwick N/A 37 25 60 NW13 N/A WCI 29 Suffern N/A 39 25 56 NW10 N/A WCI 32 Poughkeepsie CLOUDY 40 22 48 NW13 29.89R WCI 32 Albany CLOUDY 38 27 64 W18G25 29.88R WCI 28 $$ NJZ001-105-106-008-010-013-015-019>022-104-200100- New Jersey CITY SKY/WX TMP DP RH WIND PRES REMARKS Newark/Liberty FAIR 44 24 45 NW25 29.92R Teterboro FAIR 43 24 47 NW18G29 29.90R Caldwell FAIR 42 21 43 NW17G28 29.93R Somerville FAIR 41 27 57 NW10 29.93R Linden FAIR 42 24 48 NW16G26 29.93R Perth Amboy N/A 43 N/A N/A NW21G30 N/A Sussex FAIR 39 24 55 NW9G20 29.94R WCI 33 Andover N/A 38 23 55 VRB5G17 29.94R WCI 34 Trenton FAIR 41 31 67 NW12G21 29.95R Millville CLOUDY 45 28 51 NW23G30 29.98R Atlantic City CLOUDY 47 31 53 W18G26 29.95R Wrightstown CLOUDY 43 32 66 NW14G25 29.93R Toms River LGT RAIN 44 31 60 NW17G25 29.94R Belmar MOCLDY 44 29 55 W18G29 29.93R $$ PAZ047>061-062-071-200100- Eastern Pennsylvania CITY SKY/WX TMP DP RH WIND PRES REMARKS Philadelphia CLOUDY 45 26 47 NW21G26 29.99R Allentown FAIR 41 26 55 W10G20 29.97R Scranton FLURRIES 35 30 82 NW13 29.98R WCI 26 $$ CTZ002-004>006-009-010-012-RIZ004-006-007-MAZ004-011-015-200100- Southern New England In CT CITY SKY/WX TMP DP RH WIND PRES REMARKS Bradley Intl CLOUDY 41 28 60 NW13 29.82R Hartford CLOUDY 43 27 53 NW14G22 29.84R Danbury CLOUDY 40 25 55 NW7 29.87R Wtrbury/Oxford CLOUDY 38 27 64 NW7G20 29.85R WCI 33 Norwalk Harbor N/A 41 N/A N/A W18G25 N/A Bridgeport CLOUDY 41 33 73 NW8 29.86R Meriden CLOUDY 41 28 60 NW10 29.85R New Haven MOCLDY 42 33 70 NW13G22 29.85R Chester MOCLDY 41 30 65 NW10G16 29.82R Groton CLOUDY 41 34 76 NW8 29.81R Willimantic CLOUDY 42 31 64 NW12 29.81R In RI CITY SKY/WX TMP DP RH WIND PRES REMARKS Providence MOCLDY 43 36 76 NW12 29.78R Block Island CLOUDY 41 38 89 W10 29.80R Westerly CLOUDY 44 37 76 W6 29.80R In MA CITY SKY/WX TMP DP RH WIND PRES REMARKS Boston CLOUDY 43 36 76 NW12 29.75R Worcester MIX PCPN 34 32 92 W10 29.76R WCI 26 Westfield CLOUDY 40 29 64 NW15G28 29.82R WCI 32 Provincetown MOCLDY 41 38 89 W8 29.75R Nantucket CLOUDY 40 40 100 W6 29.76R $$ ANZ330-335-338-340-345-350-353-355-200100- Coastal Marine Observations STATION/POSITION TIME SKY/WX TEMP WIND PRES VSBY WAVE AIR SEA DIR/SP/G HT/PER (UTC) (F) (DEG/KT/KT) (MB) (MI) (FT/S) NY Harb Entrance 2350 45 45 310/ 23/ 29 1012.4 3/ 4 20 S Fire Island 2350 45 42 310/ 17/ 21 1011.3 3/ 5 23 SSW Montauk P 2350 42 42 270/ 17/ 19 1010.0 3/ 8 15 E Barnegat Li 2330 44 N/A 4/ 8 Hudson Canyon 2350 44 45 310/ 19/ 21 1011.0 4/ 7 Kings Point 2330 44 45 10/ 20/ 25 1012.8 Execution Rocks NOT AVBL Western LI Sound NOT AVBL Central LI Sound 2330 42 290/ 17/ 19 N/A 1 Robbins Reef 2330 45 310/ 20/ 26 1012.6 $$ >>>>>>>>>>>>>>>>>>>>>>>>>>>> KEY <<<<<<<<<<<<<<<<<<<<<<<<<<< > < > SKY/WX - Sky Condition/Present Weather < > TMP - Temperature in Fahrenheit < > DP - Dew Point in Fahrenheit < > RH - Relative Humidity in Percent < > WIND - Direction (from) and Speed in MPH < > PRES - Mean Sea Level Pressure (inches of Hg) < > WCI - Wind Chill Index < > VSB - Visibility in Miles < > HX - Heat Index < > TC - Temperature in Celsius < > VRB - Varibale Wind Direction < > < >>>>>>>>>>>>>>>>>>>>>>>>>>>> KEY <<<<<<<<<<<<<<<<<<<<<<<<<<<

USA.gov is the U.S. government's official web portal to all federal, state and local government web resources and services.